Theta_e
305 305 306 308 308 306 306 308 305 309 308 314 318 321 325 328 329 328 330 332 337 339 340 342 342 342 342 343 345 346 345 346 346 348 350 350 350 351 352 353 352 353 354 354
305 307 305 306 309 309 309 309 309 308 309 318 320 322 323 326 328 329 331 333 337 340 342 343 344 345 345 345 345 346 345 346 349 349 350 350 351 351 353 353 354 355 354 354
302 306 305 303 308 309 311 312 312 308 314 319 318 321 324 327 328 330 332 334 338 340 342 344 345 345 345 347 349 347 347 348 349 350 350 351 352 353 352 353 354 353 352 354
303 304 296 308 310 313 312 313 314 314 316 318 321 324 326 329 330 331 333 335 339 342 343 346 348 349 351 352 351 351 350 349 349 350 351 351 351 352 354 353 352 352 350 350
301 302 305 308 309 309 309 309 315 315 317 317 318 319 322 326 329 332 335 337 339 343 345 348 349 349 349 348 349 349 343 341 341 343 347 348 347 347 350 351 350 351 350 347
302 299 297 308 312 316 313 306 317 317 318 317 319 313 319 327 327 332 335 339 341 344 345 345 344 346 343 340 342 340 339 337 337 339 339 342 346 348 348 347 345 348 349 350
302 301 304 312 313 315 305 309 316 317 319 319 318 322 330 333 334 338 339 340 343 344 341 339 341 342 339 337 335 334 336 334 335 336 337 338 340 341 342 344 344 345 347 347
303 300 298 315 315 309 315 319 319 321 320 320 324 330 333 333 335 336 337 338 339 336 336 338 339 338 335 333 331 330 330 327 328 332 333 332 334 337 340 337 339 338 338 340
305 306 313 316 317 320 321 320 321 321 324 323 328 331 332 334 335 337 337 337 337 334 333 335 336 335 332 327 331 330 329 327 325 325 326 327 329 331 332 333 334 337 337 338
309 312 313 316 319 320 322 324 327 328 326 327 329 332 333 334 335 335 335 335 335 334 332 330 332 332 332 329 330 331 327 325 325 323 322 318 317 319 326 329 330 329 330 330
309 313 316 317 316 320 321 323 325 332 331 329 332 333 335 335 335 335 335 334 334 332 331 328 331 329 331 329 330 329 328 325 324 323 321 318 312 307 311 315 309 324 327 327
305 314 312 313 317 322 321 321 323 330 331 333 333 334 336 335 336 336 334 334 333 332 331 329 332 331 331 332 331 331 329 328 325 326 325 325 322 317 303 301 300 298 299 318
310 314 315 317 321 322 322 323 324 327 333 333 334 335 336 333 334 328 335 334 334 334 334 333 329 329 332 332 332 330 329 329 328 327 329 326 326 323 319 312 303 299 297 298
315 315 312 315 315 321 322 321 324 330 333 333 334 335 333 332 330 333 334 335 335 335 334 334 334 334 333 329 333 331 330 314 329 329 329 328 329 328 320 316 314 310 303 299
313 314 315 319 320 318 320 319 320 325 331 331 333 331 330 329 331 332 334 335 335 335 335 335 335 335 335 334 334 332 327 327 330 330 327 323 325 328 326 319 314 315 316 310
315 316 315 312 314 315 316 317 318 323 330 330 329 328 327 329 331 331 332 333 331 330 332 334 333 336 336 334 331 328 326 323 324 330 325 325 324 324 323 325 318 315 316 316
314 313 316 313 311 314 316 318 319 321 327 330 329 326 326 327 328 329 329 330 332 332 333 334 334 337 336 335 334 332 332 331 325 327 324 324 325 324 321 323 325 325 322 315
317 317 318 317 315 315 317 320 321 323 327 331 328 325 326 326 326 328 329 329 329 329 332 334 334 336 337 336 335 334 333 331 329 329 329 326 326 326 322 320 320 322 323 321
316 317 319 318 318 319 321 322 323 327 330 330 326 324 326 327 328 328 329 328 328 328 331 335 328 331 335 335 334 334 332 331 331 330 331 324 329 328 327 324 320 319 323 325
316 318 318 318 320 322 322 325 327 329 331 329 326 324 324 326 329 330 331 331 333 333 337 336 335 335 336 335 329 334 333 332 331 326 329 329 329 330 327 314 320 320 317 319
316 319 317 321 324 326 326 326 326 327 329 328 325 325 326 327 329 330 330 329 335 335 335 328 334 335 335 334 332 334 334 332 331 330 330 328 327 327 328 328 326 324 320 320
320 318 321 324 322 321 326 327 327 326 325 326 327 329 328 328 329 330 333 332 336 317 332 334 335 330 334 328 334 334 334 333 332 332 330 328 327 326 326 326 326 326 326 324
320 319 321 322 321 323 325 326 328 327 326 327 328 328 329 330 330 328 327 334 336 326 333 335 327 321 320 333 334 334 333 333 332 332 332 331 330 330 328 326 324 324 326 328
321 322 322 324 324 322 322 325 325 326 329 330 331 333 331 330 332 334 338 325 319 322 329 331 326 316 316 333 335 334 334 333 334 334 333 317 332 332 330 328 325 325 325 322
322 323 324 324 323 323 324 326 326 328 330 331 331 332 334 336 335 335 335 330 317 322 331 320 318 316 326 333 334 335 335 334 333 333 333 333 332 331 331 331 329 328 326 325
321 321 323 323 323 325 327 328 327 328 329 328 330 332 334 333 331 328 325 321 330 322 331 335 336 331 332 332 333 333 333 333 332 332 329 333 333 332 331 331 331 330 328 327
318 313 320 320 323 324 326 327 326 326 326 327 326 328 330 328 326 326 321 330 331 332 333 334 335 329 334 334 333 333 334 334 321 331 331 331 332 332 333 331 331 330 329 327
Wind_Speed
13 11 6 8 10 14 13 9 10 7 9 12 10 10 11 8 8 8 8 8 8 9 8 9 10 9 9 9 9 10 11 12 13 11 11 11 12 12 11 11 10 10 11 12
6 8 10 12 12 14 11 7 7 6 9 9 5 4 7 10 5 7 7 8 8 8 8 9 10 9 8 8 9 9 10 11 9 9 10 11 13 13 11 12 11 12 13 13
9 7 4 9 16 18 12 8 10 9 8 6 5 9 12 11 10 11 10 8 10 10 7 4 4 4 5 6 7 7 6 5 6 7 9 10 11 11 13 13 12 13 12 13
3 2 11 7 3 10 19 15 15 6 7 9 9 9 9 9 11 11 10 9 7 5 7 7 6 6 6 6 5 5 3 2 4 5 7 8 10 12 13 11 14 13 11 10
6 8 6 8 5 6 11 15 14 13 11 7 3 3 11 10 11 11 8 4 6 7 9 8 8 8 9 8 6 7 6 3 3 3 4 5 9 10 10 9 11 14 12 12
4 8 12 5 3 1 1 8 7 11 10 7 6 5 7 3 7 7 7 7 9 10 10 9 8 8 9 7 5 4 3 2 3 4 5 6 8 8 7 8 11 11 13 13
12 12 7 3 3 1 7 1 1 6 8 8 7 1 4 7 8 8 8 10 11 10 9 8 7 7 7 5 5 3 2 4 5 5 6 6 6 6 7 7 8 10 12 11
6 8 13 5 2 6 6 9 7 7 6 9 6 7 7 8 10 12 14 13 11 10 9 7 6 5 5 5 4 3 3 3 5 6 5 4 6 6 7 5 8 8 9 9
6 1 3 3 6 8 8 13 11 11 6 7 10 8 10 11 12 12 12 11 10 10 9 6 5 5 7 5 4 4 4 3 4 4 4 6 5 4 4 4 4 4 5 6
4 3 5 8 7 8 8 12 16 13 11 11 11 13 13 12 12 12 11 10 9 10 10 9 6 6 8 6 5 5 5 4 3 3 4 5 4 4 3 2 3 2 3 2
6 7 6 4 13 8 10 12 14 10 7 8 9 11 14 13 12 11 10 9 9 8 8 9 8 7 7 6 6 6 6 6 5 3 4 4 5 4 3 1 3 3 2 1
9 5 6 16 12 12 14 13 12 9 6 5 7 10 10 10 9 10 10 10 9 8 8 9 8 8 7 6 5 6 5 5 4 4 4 2 3 3 8 7 9 10 9 3
15 16 12 14 10 11 9 10 11 11 6 6 3 7 9 8 7 6 8 10 10 9 8 9 7 7 7 6 6 5 4 4 4 2 3 3 4 3 3 0 11 16 12 10
15 14 14 14 11 3 4 11 11 9 4 3 5 6 7 8 8 8 8 8 8 8 8 8 7 7 7 6 5 5 4 2 3 1 1 3 2 3 3 4 5 6 9 8
16 15 17 13 9 10 7 10 12 8 4 5 6 7 7 8 8 8 7 7 7 7 7 7 8 7 7 9 8 6 5 4 3 1 1 1 1 2 4 5 4 3 2 4
12 11 12 14 15 16 13 10 12 10 6 6 7 8 7 6 6 8 8 8 8 8 7 7 7 6 6 7 6 5 4 3 1 2 2 1 2 2 4 4 4 1 2 2
11 13 10 11 12 12 12 11 13 11 6 8 8 8 8 7 7 8 8 8 5 5 6 6 5 5 8 9 9 5 5 4 2 4 3 2 2 2 3 2 3 3 3 1
14 16 15 15 13 10 10 13 13 13 9 9 9 10 10 10 10 10 9 7 6 5 5 5 5 6 8 8 7 5 5 5 5 4 3 3 2 2 3 2 2 3 3 3
15 17 18 16 16 13 11 11 13 11 8 10 12 13 11 9 8 8 8 9 8 8 8 8 8 8 8 7 7 5 5 6 6 5 4 2 4 3 2 2 4 2 2 3
16 16 15 15 14 11 9 8 9 8 8 10 10 10 10 9 8 8 9 9 9 5 4 8 9 9 8 9 9 6 7 7 6 5 5 5 4 4 3 3 3 4 5 5
12 13 13 12 10 6 5 6 8 9 9 8 10 10 11 9 9 9 7 7 6 8 6 7 8 7 7 7 9 8 8 8 7 6 6 6 5 5 5 5 6 5 5 5
9 10 11 9 7 4 4 6 7 6 7 8 9 8 7 9 10 8 6 4 1 3 5 6 7 9 6 10 7 8 9 9 8 6 5 5 5 5 6 6 7 7 7 7
6 8 9 8 6 4 5 5 7 6 4 9 9 10 10 7 6 7 6 4 3 7 5 5 7 9 9 8 7 8 8 9 9 8 7 6 6 5 5 6 5 6 7 8
5 7 8 6 4 1 1 2 1 3 7 6 9 11 11 8 6 5 6 8 9 9 4 5 6 8 9 7 7 7 8 8 9 9 9 8 7 7 6 6 6 6 7 7
6 3 4 7 7 3 7 5 6 5 8 10 10 9 9 7 5 8 5 2 6 2 3 2 6 8 6 6 6 6 6 7 8 8 8 8 9 9 8 7 7 6 6 7
10 6 6 7 5 5 5 5 7 6 7 8 6 5 5 3 4 2 5 4 5 3 4 2 2 4 5 6 7 6 5 4 5 6 8 9 8 8 8 9 8 7 7 7
10 11 8 7 8 6 5 4 8 7 6 6 9 7 6 5 6 6 7 4 4 5 5 4 4 3 3 4 4 2 1 2 1 4 4 4 4 5 7 7 6 5 5 5
Wind_Direction
253 268 255 236 189 186 207 204 206 229 218 257 259 237 233 216 191 200 209 206 198 190 189 195 198 202 202 206 202 204 210 217 225 229 226 229 228 228 229 229 230 231 228 226
267 264 233 245 222 194 215 179 233 194 244 241 272 209 241 249 237 216 214 207 207 207 196 198 201 197 189 188 193 196 211 225 224 220 223 229 237 236 227 227 220 224 220 222
259 337 197 245 217 187 191 210 218 197 229 166 225 226 233 227 217 223 225 220 204 205 195 206 211 180 186 180 173 186 207 224 228 219 222 228 238 241 231 224 224 223 220 216
278 191 227 230 336 242 189 202 210 255 234 199 234 242 250 226 225 229 228 221 214 162 125 122 121 123 118 118 137 138 127 195 231 231 236 238 240 240 237 231 231 223 217 216
247 236 303 283 161 192 195 221 209 223 238 239 181 264 260 220 217 229 220 169 144 131 121 127 124 117 108 93 88 96 85 71 27 346 277 241 242 246 247 223 229 233 234 234
193 241 250 242 136 57 209 236 211 221 238 213 148 219 242 135 163 144 137 142 135 126 121 116 109 119 107 109 108 88 58 333 319 302 289 279 269 264 257 241 244 243 247 248
225 239 245 312 318 197 214 234 48 247 247 170 198 249 75 126 112 108 116 119 117 122 114 118 120 112 113 123 97 78 23 341 323 304 275 273 278 275 271 264 243 245 245 245
215 235 240 29 224 237 354 312 315 303 242 203 156 122 120 117 118 123 121 125 124 119 118 119 117 119 123 107 102 98 65 15 330 325 303 289 281 272 265 265 254 227 233 243
237 227 44 315 288 315 312 295 304 310 309 179 153 150 144 132 132 131 130 131 132 130 129 126 138 152 136 120 109 98 69 25 345 331 324 321 303 296 278 267 269 258 224 230
282 146 301 323 345 328 329 320 310 289 277 200 176 154 142 136 140 135 136 139 141 139 142 139 135 118 112 117 103 98 93 74 25 20 10 9 347 331 313 299 286 276 264 261
287 289 317 127 351 345 329 325 334 310 253 218 169 150 146 145 142 138 141 147 153 145 146 140 141 136 129 128 120 104 96 84 65 46 54 61 51 356 327 52 300 312 267 251
277 329 317 295 315 326 323 323 334 319 286 196 179 147 142 132 138 145 153 156 153 152 151 157 152 146 150 147 145 118 106 92 80 74 62 48 59 45 41 53 33 23 356 274
268 273 276 285 296 317 331 326 339 319 276 255 113 125 133 133 141 146 156 166 165 166 157 158 157 169 167 170 156 117 124 117 109 75 73 57 55 33 2 32 78 44 23 42
259 263 274 269 269 297 336 334 318 313 300 229 150 138 138 143 144 165 179 169 162 163 167 173 181 185 171 185 188 149 187 127 152 133 42 354 34 43 55 29 27 29 30 42
270 269 260 270 268 280 283 305 300 309 268 193 162 152 159 167 170 168 159 151 153 178 193 193 200 190 183 195 200 186 193 200 192 214 149 312 311 105 100 81 37 68 77 35
297 283 271 260 260 270 275 268 269 275 234 205 183 165 166 172 158 160 155 150 168 181 184 182 199 193 183 189 183 182 196 213 273 195 165 183 173 124 88 103 108 357 80 70
293 281 275 250 244 249 248 246 253 251 241 206 200 164 150 155 156 151 160 166 187 182 172 186 186 169 179 184 185 180 200 171 234 200 184 194 186 115 97 132 134 128 132 237
269 270 273 268 261 242 234 238 238 236 224 201 177 171 167 175 179 174 180 178 201 201 195 202 192 179 193 192 188 174 182 185 200 214 188 216 198 165 153 131 127 188 169 170
271 270 275 260 236 237 243 236 222 215 196 182 175 187 181 188 180 176 171 187 205 219 222 208 168 198 194 188 184 181 193 199 201 222 228 186 213 236 211 164 164 231 224 192
261 265 266 235 234 231 225 217 187 168 174 176 168 172 184 195 185 186 188 201 216 226 195 193 189 202 197 177 192 194 209 220 214 211 222 199 216 219 226 224 246 192 187 216
253 263 231 217 202 189 223 204 177 167 160 170 176 197 198 191 192 194 199 219 227 212 212 161 200 205 198 188 184 213 212 215 218 221 212 203 188 214 205 210 211 216 221 223
251 224 206 187 181 198 201 194 173 164 167 178 201 215 194 201 196 187 202 248 20 192 196 210 208 202 200 176 208 218 214 211 218 227 223 214 215 226 222 212 213 215 212 212
217 190 197 207 215 206 170 172 170 155 193 231 214 214 209 210 183 166 178 150 197 196 227 226 205 183 174 205 216 220 226 228 227 230 229 220 220 227 238 235 232 224 217 216
158 196 217 212 214 217 49 319 286 226 231 216 198 184 161 142 122 145 157 180 177 153 218 239 232 201 175 211 223 226 230 228 230 235 237 236 241 238 237 231 222 228 231 228
48 73 158 162 165 182 101 92 95 126 153 165 162 167 164 158 149 171 181 341 325 141 192 181 210 196 189 200 214 224 231 238 239 245 246 244 243 241 242 241 241 240 237 242
42 46 61 80 111 128 132 156 129 129 122 115 112 114 118 90 92 124 97 292 295 30 36 351 74 164 193 196 196 205 215 231 237 239 251 257 257 260 255 248 250 249 242 248
28 35 31 42 44 45 57 93 107 100 88 101 102 100 108 118 116 89 48 357 12 31 42 33 53 77 145 162 220 228 245 278 295 290 266 261 255 263 269 275 268 271 275 274